Home   Weather   Nãgpur   Past weeks
Flag for India

Past Weather in Nãgpur, Maharashtra, India — Yesterday and Last 2 Weeks

Now
93 °F

Passing clouds.


Feels Like: 90 °F
Forecast: 113 / 88 °F
Wind: 5 mph from Northwest

Location: Nagpur Sonegaon

Current Time: May 27, 2019 at 4:56:39 am

Latest Report: May 27, 2019 at 4:00 am


Visibility: 2 mi

Pressure: 29.62 "Hg

Humidity: 21%

Dew Point: 48 °F

Location of NãgpurLocation

Past Weather in Nãgpur — Graph

°F

Nãgpur Temperature Yesterday

Maximum temperature yesterday: 113 °F (at 3:00 pm)
Minimum temperature yesterday: 91 °F (at 1:30 am)
Average temperature yesterday: 102 °F

High & Low Weather Summary for the Past Weeks

 TemperatureHumidityPressure
High113 °F (May 21, 3:00 pm)41% (May 22, 5:30 am)29.83 "Hg (May 22, 5:30 am)
Low84 °F (May 13, 6:00 am)8% (May 17, 1:30 pm)29.56 "Hg (May 25, 4:00 pm)
Average100 °F19%29.70 "Hg
* Reported May 12 3:30 am — May 27 3:30 am, Nãgpur. Weather by CustomWeather, © 2019

Note: Actual official high and low records may vary slightly from our data, if they occured in-between our weather recording intervals... More about our weather records

Advertising

Nãgpur Weather History for the Previous 24 Hours

Scroll right to see more
 ConditionsComfort  
Time TempWeatherWind HumidityBarometerVisibility
3:30 am
Mon, May 27
95 °FPassing clouds.2 mph20%29.62 "Hg2 mi
3:00 am95 °FPassing clouds.2 mph20%29.62 "Hg2 mi
2:30 am95 °FPassing clouds.2 mph22%29.62 "Hg2 mi
2:00 am95 °FPassing clouds.3 mph22%29.62 "Hg2 mi
1:00 am95 °FPassing clouds.2 mph20%29.62 "Hg2 mi
12:30 am99 °FPassing clouds.2 mph19%29.62 "Hg2 mi
12:00 am99 °FPassing clouds.3 mph19%29.65 "Hg2 mi
11:30 pm
Sun, May 26
100 °FPassing clouds.3 mph18%29.65 "Hg2 mi
11:00 pm100 °FPassing clouds.3 mph18%29.65 "Hg2 mi
10:30 pm100 °FPassing clouds.3 mph17%29.65 "Hg2 mi
10:00 pm102 °FPassing clouds.5 mph16%29.65 "Hg2 mi
9:30 pm102 °FPassing clouds.5 mph16%29.65 "Hg2 mi
9:00 pm106 °FPassing clouds.5 mph14%29.62 "Hg2 mi
8:30 pm104 °FPassing clouds.5 mph14%29.62 "Hg2 mi
8:00 pm104 °FHaze.5 mph15%29.62 "Hg2 mi
7:30 pm106 °FPassing clouds.5 mph13%29.59 "Hg2 mi
7:00 pm108 °FScattered clouds.7 mph13%29.59 "Hg3 mi
6:30 pm109 °FScattered clouds.8 mph11%29.56 "Hg3 mi
6:00 pm111 °FScattered clouds.14 mph11%29.56 "Hg3 mi
5:30 pm111 °FScattered clouds.9 mph11%29.56 "Hg3 mi
5:00 pm111 °FScattered clouds.12 mph11%29.56 "Hg3 mi
4:30 pm113 °FScattered clouds.12 mph12%29.56 "Hg3 mi
4:00 pm113 °FScattered clouds.10 mph11%29.56 "Hg3 mi
3:30 pm113 °FScattered clouds.13 mph12%29.56 "Hg3 mi
3:00 pm113 °FScattered clouds.3 mph12%29.59 "Hg3 mi
2:30 pm111 °FScattered clouds.13 mph13%29.59 "Hg3 mi
2:00 pm111 °FScattered clouds.5 mph12%29.62 "Hg3 mi
1:30 pm109 °FScattered clouds.6 mph14%29.62 "Hg3 mi
1:00 pm109 °FScattered clouds.5 mph15%29.65 "Hg3 mi
12:30 pm109 °FScattered clouds.7 mph15%29.65 "Hg3 mi
12:00 pm109 °FHaze.2 mph15%29.65 "Hg3 mi
11:30 am108 °FHaze.6 mph17%29.68 "Hg3 mi
11:00 am108 °FHaze.2 mph17%29.68 "Hg3 mi
10:30 am106 °FHaze.5 mph18%29.68 "Hg3 mi
10:00 am106 °FHaze.2 mph19%29.68 "Hg3 mi
9:30 am102 °FHaze.3 mph21%29.71 "Hg3 mi
9:00 am102 °FHaze.5 mph23%29.71 "Hg2 mi
8:30 am100 °FHaze.6 mph22%29.71 "Hg2 mi
8:00 am99 °FHaze.6 mph24%29.68 "Hg2 mi
7:30 am99 °FHaze.7 mph24%29.68 "Hg2 mi
7:00 am95 °FHaze.5 mph26%29.68 "Hg2 mi
6:30 am93 °FHaze.5 mph28%29.65 "Hg2 mi
6:00 am91 °FHaze.3 mph30%29.65 "Hg2 mi
5:30 am91 °FHaze.5 mph30%29.65 "Hg2 mi
5:00 am91 °FHaze.5 mph28%29.62 "Hg2 mi
4:30 am91 °FHaze.5 mph28%29.62 "Hg2 mi
4:00 am91 °FHaze.5 mph28%29.62 "Hg2 mi
Weather by CustomWeather, © 2019

See weather overview